Погода в Лаганасе

Греция     37°43′46″N   20°52′05″E
темп.,
°C
ветер,
м/с
пор.,
м/с
влажн.,
%
обл.,
%
осадки,
мм/ч
давл.,
гПа
погр.,
м
7 мая, пт
пт700:00+17юз2283100 0.0 101623
03:00+17ссв2380100 0.0 101448
06:00+16св238641 0.0 101463
09:00+19св116558 0.0 1015116
12:00+24зсз114675 0.0 1014335
15:00+23зсз3247100 0.0 1014477
18:00+23зсз224946 0.0 1012191
21:00+20юз3461100 0.0 101462
8 мая, сб
сб800:00+19юв2365100 0.0 101135
03:00+18зсз2274100 0.0 101229
06:00+17всв22703 0.0 101123
09:00+20ссз12560 0.0 1011132
12:00+22зсз44514 0.0 1012413
15:00+21сз910570 0.0 1011366
18:00+20сз1013660 0.0 1011259
21:00+18сз913780 0.0 1012202
9 мая, вс
вс900:00+17сз57830 0.0 1014121
03:00+17ссз22820 0.0 101439
06:00+17св348350 0.0 101477
09:00+20всв45702 0.0 1016187
12:00+21юв46630 0.0 1018597
15:00+21ю45640 0.0 1019502
18:00+21юз23640 0.0 1018384
21:00+18зсз11800 0.0 101931
10 мая, пн
пн1000:00+17ссв11830 0.0 101932
03:00+16св22830 0.0 101856
06:00+15св34730 0.0 1018119
09:00+18св45590 0.0 1018294
12:00+21св23490 0.0 1018288
15:00+23зюз12400 0.0 1018504
18:00+23сз33451 0.0 1017457
21:00+17сз22730 0.0 101732
11 мая, вт
вт1100:00+17с11720 0.0 101711
03:00+17ссв11790 0.0 101613
06:00+16св22720 0.0 101547
09:00+19св336147 0.0 1015219
12:00+22зсз115180 0.0 1016379
15:00+22з43550 0.0 1015582
18:00+20з44660 0.0 1014317
21:00+18зсз22821 0.0 101426